Location: Sulphur Springs (historical)
(38.1246°N, 122.1900°W)
Time: 05:42:11
(UTC+00:00)

ATLAS 3B R/B - Pass Details

Date: 29 October 2020
Orbit: 1014 x 1181 km, 63.8° (Epoch: 23 November)

Event Time Altitude Azimuth Distance (km) Brightness Sun altitude
Exits shadow 12:44:57 39° 262° (W) 1,469 2.9 -21.6°
Maximum altitude 12:46:52 51° 308° (NW) 1,263 2.7 -21.2°
Drops below altitude 10° 12:53:18 10° 23° (NNE) 2,832 5.2 -20.0°
Sets 12:56:03 0° 29° (NNE) 3,805 6.0 -19.4°
